SCP
0 0 0 0 0 0 0 0 0 0 0 0 0 0 0 0 0 0 0 0 0 0 0 0 0 0 0 0 0 0 0 0 0 0 0 0 0 0 0 0 0 0 0 0
0 0 0 0 0 0 0 0 0 0 0 0 0 0 0 0 0 0 0 0 0 0 0 0 0 0 0 0 0 0 0 0 0 0 0 0 0 -0 0 0 0 0 0 0
0 0 0 0 0 0 0 0 0 0 0 0 0 0 0 0 0 0 0 0 0 0 0 0 0 0 0 0 0 0 0 0 0 0 0 0 0 0 0 0 0 0 0 0
0 0 0 0 0 0 0 0 0 0 0 0 0 0 0 0 0 0 0 0 0 0 0 0 0 0 0 0 0 0 0 0 0 0 0 0 0 0 0 0 0 0 0 0
0 -0 -0 0 0 0 0 0 0 0 0 0 0 0 0 0 0 0 0 0 0 0 0 0 0 0 0 0 0 0 0 0 0 0 0 0 0 0 0 0 0 0 0 0
0 -0 -0 0 0 0 0 0 0 0 0 0 0 0 0 0 0 0 0 0 0 0 0 0 0 0 0 0 0 0 0 0 0 0 0 0 0 0 0 0 0 0 0 0
0 0 0 0 0 0 0 0 0 0 0 0 0 0 0 0 0 0 0 0 0 0 0 0 0 0 0 0 0 0 0 0 0 0 0 0 0 0 0 0 0 0 0 0
0 0 0 0 0 0 0 0 0 0 0 0 0 0 0 0 0 0 0 0 0 -0 0 0 0 0 0 0 0 0 0 0 0 0 0 0 0 -0 0 0 0 0 0 0
0 0 0 0 0 0 0 0 0 0 0 0 0 0 0 0 0 0 0 0 0 0 0 0 0 0 0 0 0 0 0 0 0 0 0 0 0 1 1 0 0 0 0 0
0 0 -0 0 0 0 0 0 0 0 0 0 0 0 0 0 0 0 0 0 0 0 0 0 0 0 0 0 0 0 0 0 0 0 0 0 1 1 0 0 0 1 0 0
-0 -0 -0 0 0 0 0 0 0 0 0 0 0 -0 0 0 0 0 0 0 0 0 0 0 0 0 0 0 0 0 0 0 0 0 0 0 1 0 0 1 1 1 0 0
0 0 0 0 0 0 0 0 0 0 0 0 0 -0 -0 -0 0 0 0 0 0 0 0 0 0 0 0 0 0 0 0 0 0 0 0 1 1 2 1 1 1 1 0 0
0 0 -0 0 0 0 -0 -0 0 0 0 -0 -0 -0 -0 -0 -0 -0 0 0 0 0 0 0 -0 -0 0 0 0 0 0 0 0 1 1 1 1 0 0 0 0 0 1 0
-0 -0 0 -0 0 0 -0 0 -0 -0 -0 0 0 0 -0 -0 -0 -0 0 0 0 0 0 0 -0 -0 -0 0 0 -0 0 0 1 3 1 1 0 0 0 0 1 1 2 2
0 -0 -0 -0 -0 0 0 0 -0 -0 0 0 0 -0 0 0 0 0 0 0 0 0 0 0 -0 -0 -0 -0 0 0 0 0 1 2 0 1 0 0 0 0 0 1 1 1
0 0 0 -0 -0 0 0 0 0 -0 -0 0 0 0 0 0 0 0 0 0 0 0 0 0 0 -0 -0 0 0 0 0 0 0 2 0 0 0 0 0 0 0 0 0 0
0 0 0 0 0 0 0 0 0 0 -0 0 0 0 0 0 -0 0 0 0 0 -0 -0 0 0 0 0 -0 0 0 0 0 0 0 0 0 0 0 0 0 0 0 0 0
0 0 0 0 0 0 0 0 0 0 0 0 0 0 0 0 -0 -0 -0 -0 0 -0 -0 0 0 -0 -0 0 0 0 0 0 0 0 0 0 0 0 0 0 0 0 0 0
-0 -0 0 0 0 0 0 0 0 0 0 -0 0 0 0 0 0 0 -0 0 0 0 0 0 0 0 0 0 0 0 0 0 0 0 0 0 0 0 0 0 0 0 0 0
0 0 0 0 0 0 0 0 0 0 0 0 0 0 0 0 -0 0 0 0 0 0 0 -0 0 0 0 0 0 0 0 0 0 0 0 0 0 0 0 0 0 0 0 0
0 0 0 0 0 0 0 0 0 0 0 0 0 0 0 0 0 0 0 0 0 0 0 0 0 0 0 0 0 0 0 0 0 -0 0 0 0 0 0 0 0 0 0 0
0 0 0 0 0 0 0 0 0 0 0 0 0 0 0 0 0 0 0 0 0 0 0 0 0 0 0 0 0 0 -0 -0 -0 -0 -0 -0 -0 -0 -0 -0 -0 -0 -0 0
0 0 0 0 0 0 0 0 0 0 0 0 0 0 0 0 0 0 0 0 0 0 0 0 0 0 0 0 0 0 -0 -0 -0 -0 -0 -0 -0 -0 -0 -0 -0 -0 0 0
0 0 0 0 0 0 0 0 0 0 0 0 0 0 0 0 0 0 0 0 0 0 0 0 0 0 0 0 0 -0 -0 -0 0 0 -0 -0 -0 0 0 0 0 0 0 0
0 0 0 0 0 0 0 0 0 0 0 0 0 0 0 0 0 0 0 0 0 0 0 0 0 0 0 0 -0 0 0 0 0 -0 0 0 0 0 0 0 0 0 0 0
0 0 0 0 0 0 0 0 0 0 0 0 0 0 0 0 0 0 0 0 0 0 0 -0 0 -0 0 -0 0 -0 -0 0 0 0 0 0 0 0 0 0 0 0 0 0
0 0 0 0 0 0 0 0 0 0 0 0 0 0 0 0 0 0 0 0 -0 0 0 0 -0 -0 -0 0 -0 -0 0 0 0 0 0 0 0 0 0 0 0 0 0 0
Wind_Speed_500mb
44 47 45 44 43 48 34 33 15 7 8 22 26 35 54 58 59 66 56 51 55 50 53 53 53 59 43 43 38 60 55 37 37 42 46 56 56 57 63 36 56 41 45 38
46 44 43 39 35 33 35 28 42 37 29 22 28 45 56 55 54 55 55 52 61 53 56 49 47 34 45 20 21 41 46 48 36 42 43 55 60 66 64 64 45 53 44 41
46 43 39 31 28 29 23 24 14 29 38 43 33 40 42 42 48 47 41 54 51 55 59 53 44 49 47 35 25 33 20 44 54 39 48 37 57 60 63 60 48 43 53 52
41 41 35 29 25 26 23 19 24 11 20 20 21 36 31 27 34 52 49 50 56 53 53 54 56 54 46 52 41 37 33 41 52 59 55 47 48 59 60 68 57 55 50 63
39 37 34 29 27 28 27 13 18 26 37 46 41 36 36 37 39 30 40 48 43 45 54 47 53 55 57 38 41 38 44 39 42 48 51 54 50 51 53 56 61 60 61 61
43 39 36 31 26 29 19 27 32 32 25 31 25 26 46 36 26 16 35 22 29 39 41 44 42 51 50 47 44 46 48 38 38 44 45 42 51 53 55 55 55 57 58 55
46 44 42 39 30 34 37 38 29 18 25 25 29 33 9 39 31 31 45 39 21 47 58 62 46 41 35 34 53 39 39 42 33 32 40 52 38 46 53 52 47 51 53 52
42 41 37 37 39 33 41 40 32 13 19 26 34 32 29 15 54 38 36 54 39 40 60 23 18 21 28 38 30 38 39 35 34 31 39 39 46 49 49 47 55 53 54 49
38 37 35 36 31 30 36 41 42 27 9 22 21 29 36 21 22 34 40 27 36 28 21 21 26 33 33 45 45 42 42 32 31 38 49 55 39 12 11 6 23 24 34 36
35 30 31 33 28 28 32 37 35 40 16 46 43 33 22 29 21 14 23 12 21 31 11 21 26 30 39 43 58 44 44 39 44 36 33 43 15 19 9 23 9 12 21 29
23 22 22 20 24 26 28 32 32 35 18 47 56 56 56 47 44 16 21 20 3 12 13 18 22 23 28 36 41 54 48 43 38 40 46 22 12 11 22 7 8 18 20 22
20 23 22 21 21 20 26 33 22 31 41 38 43 56 55 48 46 44 32 21 10 8 7 7 10 10 14 26 31 48 48 44 34 37 42 24 30 10 7 5 6 12 20 21
20 15 18 18 16 16 23 30 25 22 22 47 54 46 44 48 59 60 46 33 27 8 18 8 4 13 8 5 18 38 37 45 36 20 17 21 32 25 22 16 14 5 6 4
20 22 21 16 17 17 18 24 20 22 15 12 39 31 14 14 27 43 54 37 10 8 22 9 6 9 11 7 9 9 11 41 23 28 34 36 35 34 32 29 22 20 16 34
23 18 14 17 21 17 20 27 26 29 22 17 42 46 33 30 36 33 44 48 38 9 8 7 5 11 13 8 6 4 7 15 6 20 37 35 35 35 34 31 27 26 35 42
23 16 15 17 19 24 24 5 12 17 21 10 8 23 17 20 20 38 34 38 29 15 6 8 12 4 10 8 1 14 29 19 25 9 55 55 46 43 32 29 29 27 29 32
22 19 18 19 20 20 17 14 10 12 22 6 9 7 18 16 30 35 30 28 27 17 14 12 11 1 6 4 6 23 25 8 16 48 55 42 26 30 35 35 26 23 23 24
26 23 23 24 22 24 24 9 16 25 11 9 6 8 13 6 34 28 27 20 15 20 8 9 4 5 9 4 13 18 38 59 60 48 50 44 36 38 45 37 27 23 23 21
25 24 20 13 8 10 11 27 8 7 10 5 6 6 7 9 5 20 18 10 8 7 5 1 5 5 1 7 12 29 39 35 48 60 53 43 47 40 28 32 47 30 17 17
21 15 9 8 5 18 29 5 6 10 9 9 6 13 5 17 32 7 8 8 6 5 4 10 7 3 16 28 41 51 62 60 55 76 58 39 25 21 38 39 27 25 15 18
18 11 9 21 23 9 9 8 12 8 5 10 13 15 11 13 9 6 6 6 7 4 2 5 6 2 11 35 35 42 52 56 56 62 61 54 36 30 13 9 4 1 13 14
19 18 19 18 9 7 6 7 2 3 7 9 11 21 6 8 11 8 13 4 6 7 8 6 5 3 16 23 19 26 24 30 30 28 22 19 13 15 11 3 4 7 8 9
11 12 9 13 14 9 13 15 6 8 17 11 25 19 3 6 23 12 3 7 8 18 7 6 4 18 13 15 18 17 16 26 33 33 26 22 18 19 15 14 12 12 11 13
8 12 8 8 7 8 8 13 11 14 16 32 29 21 6 5 7 7 2 11 3 9 7 9 7 3 8 12 21 28 27 28 30 32 26 27 24 20 20 18 18 19 19 19
7 8 11 12 18 38 36 23 12 1 20 18 22 12 5 14 8 8 9 9 10 12 8 7 12 6 7 28 29 30 31 25 25 28 28 26 25 25 24 21 20 21 18 17
7 7 20 34 33 35 47 46 43 39 29 16 7 6 9 8 6 13 17 8 9 6 4 12 12 22 26 29 28 27 25 24 22 21 21 23 21 19 17 18 18 20 19 16
7 15 34 37 37 36 40 43 44 39 37 15 9 13 12 10 10 10 10 8 7 10 8 14 23 22 21 20 24 23 19 18 23 21 16 16 17 18 20 15 9 11 17 11
Wind_Direction_500mb
312 313 318 322 326 323 343 299 272 224 222 235 234 246 253 261 267 251 246 259 263 260 258 245 226 217 228 217 216 211 216 227 233 233 226 213 229 226 233 223 225 243 257 248
306 308 311 316 317 320 329 288 284 274 228 249 248 251 258 253 261 260 256 252 241 253 260 256 245 229 242 177 234 232 204 225 226 223 239 213 215 233 226 231 225 230 237 237
298 298 302 304 306 306 311 290 285 252 212 250 264 272 278 280 274 257 265 262 263 238 250 255 252 244 238 183 211 267 298 220 225 224 224 223 216 223 238 231 231 226 234 243
306 304 297 283 292 294 297 264 272 333 285 255 334 315 301 282 287 299 279 252 251 250 235 238 243 239 237 241 186 240 244 237 228 227 247 227 227 216 225 239 236 237 234 229
300 299 299 297 290 275 267 269 300 305 290 291 292 278 270 271 274 288 292 286 285 246 251 238 237 236 230 231 206 213 227 231 239 237 223 242 250 218 226 239 242 242 245 251
290 293 295 299 294 277 255 264 276 276 278 284 279 261 280 292 326 307 247 350 324 310 359 325 307 295 241 224 217 202 213 218 224 231 233 238 239 243 223 217 225 238 246 250
289 286 285 289 280 272 265 261 268 272 271 280 279 314 268 294 295 283 290 300 284 290 315 307 284 257 263 234 222 235 226 218 225 226 222 231 240 239 242 253 245 231 236 243
293 285 282 280 283 262 264 261 242 264 268 289 289 273 289 268 289 280 281 291 283 291 300 290 239 211 224 237 233 231 225 224 218 228 235 241 228 239 234 235 236 240 244 241
294 292 281 277 278 270 260 253 251 234 272 260 273 307 297 286 266 275 261 269 279 281 264 291 256 212 209 218 222 230 235 228 231 206 232 228 228 70 32 343 253 262 280 284
296 291 288 281 269 267 253 250 244 233 247 267 275 274 300 305 297 276 252 335 292 228 261 260 235 232 223 214 213 208 217 217 225 224 221 236 96 128 136 207 245 347 306 293
299 298 300 288 284 266 252 265 261 236 237 263 269 274 275 279 283 258 277 299 201 275 228 231 233 245 234 249 227 209 206 203 216 217 230 217 30 207 214 143 311 346 322 303
297 302 299 294 289 275 259 261 254 270 242 258 274 272 265 255 254 273 268 261 288 296 290 22 306 275 299 241 241 222 207 208 209 216 224 102 134 107 98 34 355 342 315 299
320 310 313 304 298 293 284 266 274 261 266 280 269 269 268 244 240 233 250 255 251 226 343 319 250 269 302 231 255 304 193 205 216 147 120 115 96 82 77 76 71 10 324 134
331 315 311 301 304 297 290 271 281 257 267 282 289 275 281 251 234 217 216 224 154 38 346 273 253 271 359 304 315 285 10 324 179 111 122 108 100 95 88 82 83 95 72 84
330 327 313 312 311 307 283 273 265 255 242 299 304 298 289 247 219 209 210 220 239 307 327 279 264 296 334 311 228 290 32 271 269 127 150 106 104 95 95 96 90 81 82 80
335 321 312 312 324 336 323 258 218 249 258 292 299 320 279 283 199 195 195 208 218 202 273 290 269 243 308 289 357 2 303 288 299 35 108 107 103 93 96 93 76 76 88 95
331 321 315 309 301 307 286 288 299 296 317 250 287 276 284 221 164 168 171 181 193 195 219 233 275 310 284 347 304 327 348 2 79 102 112 110 100 87 77 75 71 75 69 81
323 315 305 300 293 284 291 317 283 240 238 234 269 285 296 166 144 140 166 160 179 209 227 245 271 356 10 293 311 87 67 67 68 81 94 101 94 85 85 59 46 55 56 62
333 322 309 298 262 243 280 318 316 201 215 262 222 231 176 225 241 133 119 134 200 191 224 248 346 37 336 253 76 89 73 76 88 86 86 81 75 69 72 83 17 10 20 36
10 3 262 251 257 289 301 281 193 213 214 232 261 255 12 184 198 107 135 161 212 204 65 108 41 29 340 45 77 97 98 89 86 74 53 63 65 65 57 62 33 326 346 32
344 316 284 296 291 271 231 242 199 158 253 222 249 295 358 37 66 92 202 200 156 136 113 69 41 356 320 41 99 109 107 104 97 96 95 86 94 89 68 154 220 353 53 43
309 311 311 327 286 263 317 272 209 235 1 313 295 316 293 215 202 229 191 53 197 77 154 78 31 38 25 46 52 80 134 146 146 149 140 159 160 177 156 158 91 70 74 80
359 359 331 354 346 347 344 350 354 339 349 326 338 330 56 261 187 231 59 66 52 135 51 76 317 79 46 38 50 62 86 120 122 117 104 100 107 109 111 99 110 109 92 83
14 356 357 355 356 331 276 301 324 282 286 327 326 320 313 356 55 75 4 187 64 60 32 60 77 89 353 19 117 94 83 84 85 86 92 102 89 77 85 81 76 78 70 74
41 13 358 356 324 298 275 294 24 302 315 299 314 270 337 34 12 7 12 62 48 28 52 103 207 285 66 83 73 70 79 73 75 84 84 82 88 90 82 70 72 82 79 81
15 357 0 6 6 1 0 359 4 357 323 290 264 5 44 30 9 20 17 39 43 43 78 111 117 88 83 85 81 75 73 74 72 68 76 73 78 72 73 71 69 65 59 53
1 3 13 6 5 3 1 1 1 352 12 14 26 24 20 49 31 27 3 42 136 178 106 74 75 71 71 74 72 72 66 59 68 76 69 61 57 68 59 59 63 74 61 51
Wind_Speed_850mb
44 47 45 44 43 48 34 33 15 7 8 22 26 35 54 58 59 66 56 51 55 50 53 53 53 59 43 43 38 60 55 37 37 42 46 56 56 57 63 36 56 41 45 38
46 44 43 39 35 33 35 28 42 37 29 22 28 45 56 55 54 55 55 52 61 53 56 49 47 34 45 20 21 41 46 48 36 42 43 55 60 66 64 64 45 53 44 41
46 43 39 31 28 29 23 24 14 29 38 43 33 40 42 42 48 47 41 54 51 55 59 53 44 49 47 35 25 33 20 44 54 39 48 37 57 60 63 60 48 43 53 52
41 41 35 29 25 26 23 19 24 11 20 20 21 36 31 27 34 52 49 50 56 53 53 54 56 54 46 52 41 37 33 41 52 59 55 47 48 59 60 68 57 55 50 63
39 37 34 29 27 28 27 13 18 26 37 46 41 36 36 37 39 30 40 48 43 45 54 47 53 55 57 38 41 38 44 39 42 48 51 54 50 51 53 56 61 60 61 61
43 39 36 31 26 29 19 27 32 32 25 31 25 26 46 36 26 16 35 22 29 39 41 44 42 51 50 47 44 46 48 38 38 44 45 42 51 53 55 55 55 57 58 55
46 44 42 39 30 34 37 38 29 18 25 25 29 33 9 39 31 31 45 39 21 47 58 62 46 41 35 34 53 39 39 42 33 32 40 52 38 46 53 52 47 51 53 52
42 41 37 37 39 33 41 40 32 13 19 26 34 32 29 15 54 38 36 54 39 40 60 23 18 21 28 38 30 38 39 35 34 31 39 39 46 49 49 47 55 53 54 49
38 37 35 36 31 30 36 41 42 27 9 22 21 29 36 21 22 34 40 27 36 28 21 21 26 33 33 45 45 42 42 32 31 38 49 55 39 12 11 6 23 24 34 36
35 30 31 33 28 28 32 37 35 40 16 46 43 33 22 29 21 14 23 12 21 31 11 21 26 30 39 43 58 44 44 39 44 36 33 43 15 19 9 23 9 12 21 29
23 22 22 20 24 26 28 32 32 35 18 47 56 56 56 47 44 16 21 20 3 12 13 18 22 23 28 36 41 54 48 43 38 40 46 22 12 11 22 7 8 18 20 22
20 23 22 21 21 20 26 33 22 31 41 38 43 56 55 48 46 44 32 21 10 8 7 7 10 10 14 26 31 48 48 44 34 37 42 24 30 10 7 5 6 12 20 21
20 15 18 18 16 16 23 30 25 22 22 47 54 46 44 48 59 60 46 33 27 8 18 8 4 13 8 5 18 38 37 45 36 20 17 21 32 25 22 16 14 5 6 4
20 22 21 16 17 17 18 24 20 22 15 12 39 31 14 14 27 43 54 37 10 8 22 9 6 9 11 7 9 9 11 41 23 28 34 36 35 34 32 29 22 20 16 34
23 18 14 17 21 17 20 27 26 29 22 17 42 46 33 30 36 33 44 48 38 9 8 7 5 11 13 8 6 4 7 15 6 20 37 35 35 35 34 31 27 26 35 42
23 16 15 17 19 24 24 5 12 17 21 10 8 23 17 20 20 38 34 38 29 15 6 8 12 4 10 8 1 14 29 19 25 9 55 55 46 43 32 29 29 27 29 32
22 19 18 19 20 20 17 14 10 12 22 6 9 7 18 16 30 35 30 28 27 17 14 12 11 1 6 4 6 23 25 8 16 48 55 42 26 30 35 35 26 23 23 24
26 23 23 24 22 24 24 9 16 25 11 9 6 8 13 6 34 28 27 20 15 20 8 9 4 5 9 4 13 18 38 59 60 48 50 44 36 38 45 37 27 23 23 21
25 24 20 13 8 10 11 27 8 7 10 5 6 6 7 9 5 20 18 10 8 7 5 1 5 5 1 7 12 29 39 35 48 60 53 43 47 40 28 32 47 30 17 17
21 15 9 8 5 18 29 5 6 10 9 9 6 13 5 17 32 7 8 8 6 5 4 10 7 3 16 28 41 51 62 60 55 76 58 39 25 21 38 39 27 25 15 18
18 11 9 21 23 9 9 8 12 8 5 10 13 15 11 13 9 6 6 6 7 4 2 5 6 2 11 35 35 42 52 56 56 62 61 54 36 30 13 9 4 1 13 14
19 18 19 18 9 7 6 7 2 3 7 9 11 21 6 8 11 8 13 4 6 7 8 6 5 3 16 23 19 26 24 30 30 28 22 19 13 15 11 3 4 7 8 9
11 12 9 13 14 9 13 15 6 8 17 11 25 19 3 6 23 12 3 7 8 18 7 6 4 18 13 15 18 17 16 26 33 33 26 22 18 19 15 14 12 12 11 13
8 12 8 8 7 8 8 13 11 14 16 32 29 21 6 5 7 7 2 11 3 9 7 9 7 3 8 12 21 28 27 28 30 32 26 27 24 20 20 18 18 19 19 19
7 8 11 12 18 38 36 23 12 1 20 18 22 12 5 14 8 8 9 9 10 12 8 7 12 6 7 28 29 30 31 25 25 28 28 26 25 25 24 21 20 21 18 17
7 7 20 34 33 35 47 46 43 39 29 16 7 6 9 8 6 13 17 8 9 6 4 12 12 22 26 29 28 27 25 24 22 21 21 23 21 19 17 18 18 20 19 16
7 15 34 37 37 36 40 43 44 39 37 15 9 13 12 10 10 10 10 8 7 10 8 14 23 22 21 20 24 23 19 18 23 21 16 16 17 18 20 15 9 11 17 11
Wind_Direction_850mb
312 313 318 322 326 323 343 299 272 224 222 235 234 246 253 261 267 251 246 259 263 260 258 245 226 217 228 217 216 211 216 227 233 233 226 213 229 226 233 223 225 243 257 248
306 308 311 316 317 320 329 288 284 274 228 249 248 251 258 253 261 260 256 252 241 253 260 256 245 229 242 177 234 232 204 225 226 223 239 213 215 233 226 231 225 230 237 237
298 298 302 304 306 306 311 290 285 252 212 250 264 272 278 280 274 257 265 262 263 238 250 255 252 244 238 183 211 267 298 220 225 224 224 223 216 223 238 231 231 226 234 243
306 304 297 283 292 294 297 264 272 333 285 255 334 315 301 282 287 299 279 252 251 250 235 238 243 239 237 241 186 240 244 237 228 227 247 227 227 216 225 239 236 237 234 229
300 299 299 297 290 275 267 269 300 305 290 291 292 278 270 271 274 288 292 286 285 246 251 238 237 236 230 231 206 213 227 231 239 237 223 242 250 218 226 239 242 242 245 251
290 293 295 299 294 277 255 264 276 276 278 284 279 261 280 292 326 307 247 350 324 310 359 325 307 295 241 224 217 202 213 218 224 231 233 238 239 243 223 217 225 238 246 250
289 286 285 289 280 272 265 261 268 272 271 280 279 314 268 294 295 283 290 300 284 290 315 307 284 257 263 234 222 235 226 218 225 226 222 231 240 239 242 253 245 231 236 243
293 285 282 280 283 262 264 261 242 264 268 289 289 273 289 268 289 280 281 291 283 291 300 290 239 211 224 237 233 231 225 224 218 228 235 241 228 239 234 235 236 240 244 241
294 292 281 277 278 270 260 253 251 234 272 260 273 307 297 286 266 275 261 269 279 281 264 291 256 212 209 218 222 230 235 228 231 206 232 228 228 70 32 343 253 262 280 284
296 291 288 281 269 267 253 250 244 233 247 267 275 274 300 305 297 276 252 335 292 228 261 260 235 232 223 214 213 208 217 217 225 224 221 236 96 128 136 207 245 347 306 293
299 298 300 288 284 266 252 265 261 236 237 263 269 274 275 279 283 258 277 299 201 275 228 231 233 245 234 249 227 209 206 203 216 217 230 217 30 207 214 143 311 346 322 303
297 302 299 294 289 275 259 261 254 270 242 258 274 272 265 255 254 273 268 261 288 296 290 22 306 275 299 241 241 222 207 208 209 216 224 102 134 107 98 34 355 342 315 299
320 310 313 304 298 293 284 266 274 261 266 280 269 269 268 244 240 233 250 255 251 226 343 319 250 269 302 231 255 304 193 205 216 147 120 115 96 82 77 76 71 10 324 134
331 315 311 301 304 297 290 271 281 257 267 282 289 275 281 251 234 217 216 224 154 38 346 273 253 271 359 304 315 285 10 324 179 111 122 108 100 95 88 82 83 95 72 84
330 327 313 312 311 307 283 273 265 255 242 299 304 298 289 247 219 209 210 220 239 307 327 279 264 296 334 311 228 290 32 271 269 127 150 106 104 95 95 96 90 81 82 80
335 321 312 312 324 336 323 258 218 249 258 292 299 320 279 283 199 195 195 208 218 202 273 290 269 243 308 289 357 2 303 288 299 35 108 107 103 93 96 93 76 76 88 95
331 321 315 309 301 307 286 288 299 296 317 250 287 276 284 221 164 168 171 181 193 195 219 233 275 310 284 347 304 327 348 2 79 102 112 110 100 87 77 75 71 75 69 81
323 315 305 300 293 284 291 317 283 240 238 234 269 285 296 166 144 140 166 160 179 209 227 245 271 356 10 293 311 87 67 67 68 81 94 101 94 85 85 59 46 55 56 62
333 322 309 298 262 243 280 318 316 201 215 262 222 231 176 225 241 133 119 134 200 191 224 248 346 37 336 253 76 89 73 76 88 86 86 81 75 69 72 83 17 10 20 36
10 3 262 251 257 289 301 281 193 213 214 232 261 255 12 184 198 107 135 161 212 204 65 108 41 29 340 45 77 97 98 89 86 74 53 63 65 65 57 62 33 326 346 32
344 316 284 296 291 271 231 242 199 158 253 222 249 295 358 37 66 92 202 200 156 136 113 69 41 356 320 41 99 109 107 104 97 96 95 86 94 89 68 154 220 353 53 43
309 311 311 327 286 263 317 272 209 235 1 313 295 316 293 215 202 229 191 53 197 77 154 78 31 38 25 46 52 80 134 146 146 149 140 159 160 177 156 158 91 70 74 80
359 359 331 354 346 347 344 350 354 339 349 326 338 330 56 261 187 231 59 66 52 135 51 76 317 79 46 38 50 62 86 120 122 117 104 100 107 109 111 99 110 109 92 83
14 356 357 355 356 331 276 301 324 282 286 327 326 320 313 356 55 75 4 187 64 60 32 60 77 89 353 19 117 94 83 84 85 86 92 102 89 77 85 81 76 78 70 74
41 13 358 356 324 298 275 294 24 302 315 299 314 270 337 34 12 7 12 62 48 28 52 103 207 285 66 83 73 70 79 73 75 84 84 82 88 90 82 70 72 82 79 81
15 357 0 6 6 1 0 359 4 357 323 290 264 5 44 30 9 20 17 39 43 43 78 111 117 88 83 85 81 75 73 74 72 68 76 73 78 72 73 71 69 65 59 53
1 3 13 6 5 3 1 1 1 352 12 14 26 24 20 49 31 27 3 42 136 178 106 74 75 71 71 74 72 72 66 59 68 76 69 61 57 68 59 59 63 74 61 51